Retour au catalogue

HULIANWANG DIGUI-98

ActifCommunicationsLEO
NORAD 66414·PAYLOAD·🇨🇳 China

Lancé Nov 10, 2025 depuis Wenchang Space Launch Site

Loading…

Prochains Passages (prochaines 24 heures)

TLE

FraisSource: Space-Track

Époque: Sep 14, 2026, 11:14 UTC

1 66414U 25258C   26257.46874477 -.00000089  00000-0  75736-4 0  9992
2 66414  50.0067 335.6616 0000262  72.4157 287.6744 13.29326637 41608

Suivez HULIANWANG DIGUI-98 en temps réel avec AllMySat

Download on the App Store